Вернуться в каталог

COSMOS 2252

АктивенВоенныеPO
NORAD 22687·PAYLOAD·🇷🇺 Russia

Запущен Jun 24, 1993 с Plesetsk Cosmodrome

Loading…

Ближайшие Пролёты (ближайшие 24 часа)

TLE

СвежийSource: Space-Track

Эпоха: Sep 14, 2026, 18:09 UTC

1 22687U 93038A   26257.75682485  .00000034  00000-0  12709-3 0  9994
2 22687  82.5864 170.7477 0008569 126.2880 260.3866 12.63335189531830

Отслеживайте COSMOS 2252 в реальном времени с AllMySat

Download on the App Store